Regional Weather Roundup
Issued by NWS

Home | Current Version | Previous Version | Text Only | Print | Product List | Glossary Off
Versions: 1 2 3 4 5 6 7 8 9 10 11 12 13 14 15 16 17 18 19 20 21 22 23 24 25 26 27 28 29 30 31 32 33 34 35 36 37 38 39 40 41 42 43 44 45 46 47 48 49 50

000
ASUS43 KDMX 020607
RWRIA

WEATHER ROUNDUP FOR IOWA
NATIONAL WEATHER SERVICE DES MOINES IA
100 AM CDT THU APR 02 2015

NOTE: "FAIR" INDICATES FEW OR NO CLOUDS BELOW 12,000 FEET WITH NO
SIGNIFICANT WEATHER AND/OR OBSTRUCTIONS TO VISIBILITY.

* - THESE STATIONS ARE NOT NWS STATIONS...THUS NOT UNDER NWS
QUALITY CONTROL.  THEY ALSO DO NOT REPORT WEATHER SUCH
AS PRECIPITATION OR FOG.

IAZ001>003-012>014-020>022-031>034-043>046-020700-
   NORTHWEST IOWA

CITY           SKY/WX    TMP DP  RH WIND       PRES   REMARKS
CARROLL *      RAIN      55  55 100 W9        29.70R
CHEROKEE *     LGT RAIN  55  50  86 N9        29.71R
DENISON *      RAIN      54  54 100 CALM      29.72R
LE MARS *      CLOUDY    55  43  62 N10       29.74R
ORANGE CITY *  MOCLDY    57  39  51 NW13G20   29.74S
SHELDON *      CLOUDY    55  43  62 N13       29.72S
SIOUX CITY     LGT RAIN  56  44  64 NW13      29.74R
6HR MIN TEMP:  56; 6HR MAX TEMP:  80; 6HR PCP:  0.20;

SPENCER        LGT RAIN  51  48  89 NW7       29.71F
6HR MIN TEMP:  51; 6HR MAX TEMP:  77; 6HR PCP:  0.25;

STORM LAKE *   LGT RAIN  54  50  87 N10       29.71R
$$

IAZ055>058-069>071-079>083-090>094-020700-
   SOUTHWEST IOWA

CITY           SKY/WX    TMP DP  RH WIND       PRES   REMARKS
ATLANTIC *     RAIN      55  55 100 CALM      29.72F
AUDUBON *      HVY RAIN  55  52  88 CALM      29.73R
CLARINDA *     HVY RAIN  57  52  82 N14G24    29.71F
COUNCIL BLFS * RAIN      55  55 100 N12       29.71R
CRESTON *      MOCLDY    59  55  88 W18G39    29.70R
HARLAN  *      RAIN      54  54 100 NW10      29.76R
LAMONI         CLOUDY    61  57  87 S20G25    29.62F
6HR MIN TEMP:  59; 6HR MAX TEMP:  74;

RED OAK *      LGT RAIN  57  55  94 NE9       29.70F
SHENANDOAH *   LGT RAIN  55  54  94 N12       29.70S
$$

IAZ047>049-059>061-072>074-084-020700-
   CENTRAL IOWA

CITY           SKY/WX    TMP DP  RH WIND       PRES   REMARKS
AMES           TSTM      62  52  69 S8        29.65F
6HR MIN TEMP:  61; 6HR MAX TEMP:  75; 6HR PCP: TRACE;

ANKENY *       MOCLDY    63  54  72 W10G18    29.67R
CHARITON *     CLOUDY    59  55  88 S21G31    29.63F
DES MOINES     CLOUDY    61  52  72 NW20      29.68R
6HR MIN TEMP:  61; 6HR MAX TEMP:  77;

GRINNELL*      MOCLDY    59  50  72 S13       29.65F
KNOXVILLE *    MOCLDY    59  54  82 S16G22    29.62F
MARSHALLTOWN   CLOUDY    62  52  69 W13       29.68R
6HR MIN TEMP:  61; 6HR MAX TEMP:  71;

PELLA *        MOCLDY    60  56  86 S14       29.65F
PERRY *        HVY RAIN  59  55  88 N7        29.68R
$$

IAZ004>006-015-016-023>025-035-036-020700-
   NORTH CENTRAL IOWA

CITY           SKY/WX    TMP DP  RH WIND       PRES   REMARKS
ALGONA *       RAIN      57  55  94 NW13G22   29.66F
CLARION *      DRIZZLE   55  55 100 SE6       29.67R
ESTHERVILLE    CLOUDY    52  49  89 NW8       29.70R
6HR MIN TEMP:  52; 6HR MAX TEMP:  77; 6HR PCP:  0.11;

FORT DODGE *   CLOUDY    55  52  88 CALM      29.67S
MASON CITY     RAIN      57  54  89 W8        29.67F
6HR MIN TEMP:  56; 6HR MAX TEMP:  73; 6HR PCP:  0.33;

FOREST CITY *  RAIN      54  54 100 N10       29.62F
IOWA FALLS *   CLOUDY    61  51  69 S7        29.68F
$$

IAZ007>011-017>019-026>030-037>042-050>054-066-020700-
   NORTHEAST IOWA

CITY           SKY/WX    TMP DP  RH WIND       PRES   REMARKS
CEDAR RAPIDS   PTCLDY    58  49  72 S12       29.66F
6HR MIN TEMP:  57; 6HR MAX TEMP:  73;

CHARLES CITY * CLOUDY    59  52  77 W6        29.69S
CLINTON *      CLEAR     57  37  47 S10       29.76R
DECORAH *      CLOUDY    61  45  55 SW6       29.68F
DUBUQUE        PTCLDY    55  38  52 S15       29.69F
6HR MIN TEMP:  55; 6HR MAX TEMP:  70;

MONTICELLO *   CLEAR     54  39  58 SE8       29.69F
OELWEIN *      CLOUDY    57  45  62 W6        29.72R
WATERLOO       CLOUDY    64  51  62 SW9       29.70R
6HR MIN TEMP:  63; 6HR MAX TEMP:  74;

$$

IAZ064-065-067-068-078-020700-
   EAST CENTRAL IOWA

CITY           SKY/WX    TMP DP  RH WIND       PRES   REMARKS
DAVENPORT      CLEAR     60  38  43 S13       29.72F
6HR MIN TEMP:  60; 6HR MAX TEMP:  72;

IOWA CITY      PTCLDY    55  44  66 S8        29.71S
6HR MIN TEMP:  55; 6HR MAX TEMP:  73;

MT. PLEASANT * MOCLDY    60  51  70 S15       29.71S
MUSCATINE *    CLEAR     59  45  58 S13       29.71F
QUAD CITIES    CLEAR     62  38  40 S9        29.72S
6HR MIN TEMP:  61; 6HR MAX TEMP:  73;

$$

IAZ062-063-075>077-085>089-095>099-020700-
   SOUTHEAST IOWA

CITY           SKY/WX    TMP DP  RH WIND       PRES   REMARKS
BURLINGTON     MOCLDY    62  50  64 SW13      29.73R
6HR MIN TEMP:  60; 6HR MAX TEMP:  72;

FAIRFIELD *    CLOUDY    61  52  72 S16G24    29.69F
FORT MADISON * CLOUDY    61  52  72 S15G21    29.73S
KEOKUK *       CLOUDY    63  54  72 S15G22    29.72S
OSKALOOSA *    MOCLDY    59  53  80 S16       29.67S
CENTERVILLE *  MOCLDY    59  57  94 S14       29.68F
OTTUMWA        CLOUDY    60  54  80 S16G25    29.67F
6HR MIN TEMP:  59; 6HR MAX TEMP:  74;

WASHINGTON *   PTCLDY    61  55  82 S15G22    29.69F
$$

ABBREVIATIONS USED IN REMARKS
   TC - TEMPERATURES IN CELSIUS
  WCI - WIND CHILL INDEX
   HX - HEAT INDEX
  VSB - VISIBILITY
$$




USA.gov is the U.S. government's official web portal to all federal, state and local government web resources and services.